METOP-B

Last updated on Wed Sep 17 2025 00:02:22 GMT+0000 (Coordinated Universal Time)

1 38771U 12049A 25259.50580100 .00000089 00000+0 60271-4 0 9990 2 38771 98.6196 310.9404 0002246 68.2486 291.8931 14.21460550674385
UTC large
Height (km)
Speed (km/s)
/
Latitude / Longitude
Inclination (degrees)
Orbital Period (minutes)
Azimuth
Elevation
Range (km)
Doppler Factor

Next 0 passes for location: London (51.5072 / 0.1276)

Sorry there are no passes over London.